This demonstration page uses our WeatherBlox Daily Observations layout. Learn more.

Left ArrowRight Arrow

Hourly Observations for November 19, 2016

Temp ( °F °C ) Dew Point ( °F °C ) Humidity (%) Winds ( mph kmh ) Pressure ( in mb ) Visibility ( mi km ) Precip ( " mm )
4:53 am 04:53 Clear 31 -0.6 23 -5 72 72 Calm 30.57 1035 10 16 0.00 0.00
5:53 am 05:53 Clear 31 -0.6 23 -5 72 72 ENE 3 6 30.58 1036 10 16 0.00 0.00
6:53 am 06:53 Clear 33 0.6 22 -5.6 64 64 E 5 7 30.60 1036 10 16 0.00 0.00
7:53 am 07:53 Sunny 33 0.6 23 -5 66 66 E 6 9 30.62 1037 10 16 0.00 0.00
8:53 am 08:53 Sunny 43 6.1 22 -5.6 43 43 ESE 9 15 30.60 1036 10 16 0.00 0.00
9:53 am 09:53 Sunny 46 7.8 20 -6.7 35 35 SSE 12 19 30.60 1036 10 16 0.00 0.00
10:53 am 10:53 Sunny 49 9.4 19 -7.2 31 31 SSE 12 19 30.60 1036 10 16 0.00 0.00
11:53 am 11:53 Sunny 51 10.6 19 -7.2 28 28 SE 10 17 30.56 1035 10 16 0.00 0.00
12:53 pm 12:53 Sunny 54 12.2 17 -8.3 23 23 VRB 7 11 30.51 1033 10 16 0.00 0.00
1:53 pm 13:53 Sunny 57 13.9 16 -8.9 20 20 SE 12 19 30.46 1031 10 16 0.00 0.00
2:53 pm 14:53 Sunny 58 14.4 14 -10 18 18 SE 12 19 30.42 1030 10 16 0.00 0.00
3:53 pm 15:53 Sunny 58 14.4 14 -10 18 18 SSE 12 19 30.40 1030 10 16 0.00 0.00
4:53 pm 16:53 Sunny 58 14.4 14 -10 18 18 undefined N/A 30.39 1029 10 16 0.00 0.00
5:53 pm 17:53 Clear 53 11.7 16 -8.9 23 23 VRB 3 6 30.39 1029 10 16 0.00 0.00
6:53 pm 18:53 Clear 49 9.4 18 -7.8 29 29 ESE 8 13 30.39 1029 10 16 0.00 0.00
7:53 pm 19:53 Clear 48 8.9 17 -8.3 29 29 ESE 7 11 30.39 1029 10 16 0.00 0.00
8:53 pm 20:53 Clear 46 7.8 19 -7.2 34 34 ESE 8 13 30.36 1028 10 16 0.00 0.00
9:53 pm 21:53 Clear 46 7.8 19 -7.2 34 34 SE 10 17 30.35 1028 10 16 0.00 0.00
10:53 pm 22:53 Clear 43 6.1 20 -6.7 40 40 SE 9 15 30.33 1027 10 16 0.00 0.00
11:53 pm 23:53 Clear 44 6.7 19 -7.2 37 37 ESE 8 13 30.31 1026 10 16 0.00 0.00

Powered by AerisWeather